Weather History for Grants-Milan, NM

Change the Weather History Date:

Monday, October 29, 2012

  Actual Average Record
Temperature  
Mean Temperature 48 °F -  
Max Temperature 73 °F 62 °F 80 °F (1968)
Min Temperature 24 °F 27 °F 10 °F (1970)
Degree Days  
Heating Degree Days 16    
Moisture  
Dew Point 11 °F    
Average Humidity 29    
Maximum Humidity 53    
Minimum Humidity 9    
Precipitation  
Precipitation 0.00 in - - ()
Sea Level Pressure  
Sea Level Pressure 30.30 in    
Wind  
Wind Speed 7 mph (NW)    
Max Wind Speed 20 mph    
Max Gust Speed 29 mph    
Visibility 10 miles    
Events      
Averages and records for this station are not official NWS values.
T = Trace of Precipitation, MM = Missing Value Source: NWS Daily Summary

Daily Weather History Graph

Daily Weather History Graph

Search for Another Location

Airport:

Trip Planner

Search our weather history database for the weather conditions in past years. The results will help you decide how hot, cold, wet, or windy it might be!

Date:

Astronomy

Oct. 29, 2012 Rise Set
Actual Time 7:30 AM MDT 6:19 PM MDT
Civil Twilight 7:04 AM MDT 6:45 PM MDT
Nautical Twilight 6:34 AM MDT 7:15 PM MDT
Astronomical Twilight 6:04 AM MDT 7:45 PM MDT
Moon 6:15 PM MDT (10/29) 7:22 AM MDT (10/29)
Length of Visible Light 11h 41m
Length of Day
10h 48m
Full, 100% of the Moon is Illuminated
Oct 29
Full
Oct 29
Full
Nov 6
Last Quarter
Nov 13
New
Nov 20
First Quarter

Hourly Weather History & Observations

Time (MDT) Temp. Windchill Dew Point Humidity Pressure Visibility Wind Dir Wind Speed Gust Speed Precip Events Conditions
12:15 AM 36.1 °F 33.5 °F 12.2 °F 37% 30.29 in 10.0 mi NNW 3.5 mph - N/A   Clear
12:35 AM 31.5 °F 25.8 °F 11.3 °F 43% 30.30 in 10.0 mi NNW 5.8 mph - N/A   Clear
12:55 AM 34.2 °F 29.0 °F 12.2 °F 40% 30.30 in 10.0 mi WNW 5.8 mph - N/A   Clear
1:15 AM 36.7 °F 31.2 °F 11.3 °F 35% 30.30 in 10.0 mi WNW 6.9 mph - N/A   Clear
1:35 AM 34.7 °F 28.8 °F 12.2 °F 39% 30.30 in 10.0 mi NW 6.9 mph - N/A   Clear
1:55 AM 34.5 °F 29.4 °F 12.2 °F 40% 30.31 in 10.0 mi WNW 5.8 mph - N/A   Clear
2:15 AM 32.0 °F 27.5 °F 11.3 °F 42% 30.32 in 10.0 mi NW 4.6 mph - N/A   Clear
2:35 AM 29.8 °F 24.9 °F 11.1 °F 46% 30.32 in 10.0 mi NNW 4.6 mph - N/A   Clear
2:55 AM 29.5 °F 24.5 °F 10.9 °F 46% 30.32 in 10.0 mi North 4.6 mph - N/A   Clear
3:15 AM 26.6 °F 21.2 °F 9.5 °F 49% 30.32 in 10.0 mi NW 4.6 mph - N/A   Clear
3:35 AM 28.8 °F 23.7 °F 10.4 °F 46% 30.32 in 10.0 mi NW 4.6 mph - N/A   Clear
3:55 AM 27.9 °F 22.6 °F 9.7 °F 47% 30.31 in 10.0 mi NW 4.6 mph - N/A   Clear
4:15 AM 26.4 °F 18.9 °F 9.7 °F 49% 30.32 in 10.0 mi NNW 6.9 mph - N/A   Clear
4:35 AM 26.8 °F 19.3 °F 8.8 °F 47% 30.32 in 10.0 mi NW 6.9 mph - N/A   Clear
4:55 AM 28.8 °F 22.6 °F 10.2 °F 46% 30.32 in 10.0 mi NW 5.8 mph - N/A   Clear
5:15 AM 27.9 °F 19.8 °F 10.0 °F 47% 30.32 in 10.0 mi NW 8.1 mph - N/A   Clear
5:55 AM 29.8 °F 20.9 °F 10.4 °F 44% 30.32 in 10.0 mi WNW 10.4 mph - N/A   Clear
6:15 AM 30.2 °F 21.3 °F 10.4 °F 44% 30.32 in 10.0 mi WNW 10.4 mph - N/A   Clear
6:35 AM 28.4 °F 22.2 °F 10.2 °F 47% 30.32 in 10.0 mi NW 5.8 mph - N/A   Clear
6:55 AM 25.5 °F 18.7 °F 8.8 °F 49% 30.32 in 10.0 mi NNW 5.8 mph - N/A   Clear
7:15 AM 25.2 °F 18.3 °F 9.3 °F 51% 30.33 in 10.0 mi NNW 5.8 mph - N/A   Clear
7:35 AM 24.1 °F 17.0 °F 9.3 °F 53% 30.33 in 10.0 mi NNW 5.8 mph - N/A   Clear
7:55 AM 27.1 °F 18.9 °F 10.9 °F 51% 30.34 in 10.0 mi NW 8.1 mph - N/A   Clear
8:15 AM 30.4 °F 23.6 °F 11.1 °F 45% 30.35 in 10.0 mi NW 6.9 mph - N/A   Clear
8:35 AM 31.6 °F 25.1 °F 10.2 °F 41% 30.36 in 10.0 mi NW 6.9 mph - N/A   Clear
8:55 AM 34.0 °F 27.2 °F 10.4 °F 38% 30.37 in 10.0 mi NW 8.1 mph - N/A   Clear
9:15 AM 36.7 °F 31.2 °F 10.6 °F 34% 30.37 in 10.0 mi NW 6.9 mph - N/A   Clear
9:35 AM 40.5 °F 35.8 °F 11.7 °F 31% 30.36 in 10.0 mi NNW 6.9 mph - N/A   Clear
9:55 AM 44.8 °F 41.0 °F 13.3 °F 28% 30.36 in 10.0 mi North 6.9 mph - N/A   Clear
10:15 AM 47.5 °F - 14.0 °F 26% 30.36 in 10.0 mi NNW 4.6 mph - N/A   Clear
10:35 AM 49.3 °F - 14.5 °F 25% 30.35 in 10.0 mi Calm Calm - N/A   Clear
10:55 AM 53.1 °F - 15.6 °F 23% 30.35 in 10.0 mi Calm Calm - N/A   Clear
11:55 AM 61.7 °F - 14.0 °F 16% 30.34 in 10.0 mi Calm Calm - N/A   Clear
12:15 PM 63.3 °F - 14.2 °F 15% 30.32 in 10.0 mi Calm Calm - N/A   Clear
12:35 PM 67.1 °F - 15.3 °F 14% 30.32 in 10.0 mi NNW 6.9 mph - N/A   Clear
12:55 PM 68.4 °F - 16.0 °F 13% 30.30 in 10.0 mi North 9.2 mph - N/A   Clear
1:15 PM 70.9 °F - 16.0 °F 12% 30.28 in 10.0 mi NNW 5.8 mph - N/A   Clear
1:35 PM 72.5 °F - 13.6 °F 11% 30.27 in 10.0 mi North 15.0 mph 18.4 mph N/A   Clear
1:55 PM 72.7 °F - 13.6 °F 10% 30.26 in 10.0 mi North 13.8 mph 18.4 mph N/A   Clear
2:15 PM 73.8 °F - 13.1 °F 10% 30.25 in 10.0 mi North 13.8 mph 20.7 mph N/A   Clear
2:35 PM 73.4 °F - 13.1 °F 10% 30.25 in 10.0 mi NNW 18.4 mph 24.2 mph N/A   Clear
2:55 PM 73.8 °F - 12.6 °F 10% 30.24 in 10.0 mi North 12.7 mph 24.2 mph N/A   Clear
3:15 PM 73.6 °F - 12.0 °F 9% 30.24 in 10.0 mi NNW 13.8 mph 24.2 mph N/A   Clear
3:35 PM 73.8 °F - 12.0 °F 9% 30.24 in 10.0 mi NNW 17.3 mph - N/A   Clear
4:15 PM 72.7 °F - 11.3 °F 9% 30.24 in 10.0 mi NNW 19.6 mph 28.8 mph N/A   Clear
4:35 PM 72.5 °F - 11.7 °F 10% 30.23 in 10.0 mi NNW 18.4 mph 24.2 mph N/A   Clear
4:55 PM 71.6 °F - 11.3 °F 10% 30.23 in 10.0 mi NNW 16.1 mph 25.3 mph N/A   Clear
5:15 PM 70.9 °F - 10.2 °F 10% 30.23 in 10.0 mi NW 17.3 mph 24.2 mph N/A   Clear
5:35 PM 69.6 °F - 10.0 °F 10% 30.23 in 10.0 mi NNW 10.4 mph - N/A   Clear
5:55 PM 68.0 °F - 10.4 °F 11% 30.24 in 10.0 mi NW 12.7 mph - N/A   Clear
6:15 PM 63.3 °F - 9.7 °F 12% 30.24 in 10.0 mi WNW 5.8 mph - N/A   Clear
6:35 PM 61.2 °F - 9.5 °F 13% 30.24 in 10.0 mi West 6.9 mph - N/A   Clear
6:55 PM 58.3 °F - 9.3 °F 14% 30.26 in 10.0 mi North 6.9 mph - N/A   Clear
9:55 PM 43.9 °F 39.3 °F 8.8 °F 24% 30.29 in 10.0 mi NW 8.1 mph - N/A   Clear
10:15 PM 41.9 °F 37.5 °F 8.4 °F 25% 30.30 in 10.0 mi NW 6.9 mph - N/A   Clear
10:35 PM 37.9 °F 33.5 °F 7.7 °F 29% 30.30 in 10.0 mi NW 5.8 mph - N/A   Clear
10:55 PM 38.1 °F 33.7 °F 8.4 °F 29% 30.30 in 10.0 mi NW 5.8 mph - N/A   Clear
11:15 PM 36.0 °F 30.3 °F 8.4 °F 32% 30.30 in 10.0 mi NW 6.9 mph - N/A   Clear
11:35 PM 39.6 °F 35.4 °F 9.3 °F 29% 30.30 in 10.0 mi NW 5.8 mph - N/A   Clear
11:55 PM 36.9 °F 33.1 °F 8.2 °F 31% 30.30 in 10.0 mi NW 4.6 mph - N/A   Clear